Home   Weather   Geretsried   Past weeks

Flag for Germany Past Weather in Geretsried, Bavaria, Germany — Yesterday and Last 2 Weeks

Now
68 °F

Sunny.


Feels Like: 68 °F
Forecast: 52 / 73 °F
Wind: 8 mph from Southwest

Location: Oberpfaffenhofen

Current Time: Sep 29, 2016 at 12:18:47 PM

Latest Report: Sep 29, 2016 at 11:50 AM


Visibility: 10 mi

Pressure: 30.27 "Hg (28.20 "Hg at 609m altitude)

Humidity: 53%

Dew Point: 50 °F

Location of GeretsriedLocation

Past Weather in Geretsried — Graph

°F

Geretsried Temperature Yesterday

Maximum temperature yesterday: 68 °F (at 2:20 PM)
Minimum temperature yesterday: 48 °F (at 6:50 AM)
Average temperature yesterday: 60 °F

High & Low Weather Summary for the Past Weeks

 TemperatureHumidityPressure
High82 °F (Sep 15, 1:20 PM)100% (Sep 15, 6:50 AM)30.45 "Hg (Sep 15, 6:50 AM)
Low36 °F (Sep 22, 6:50 AM)26% (Sep 15, 2:20 PM)29.89 "Hg (Sep 15, 6:50 AM)
Average60 °F78%30.13 "Hg
* Reported Sep 14 10:20 AM — Sep 29 10:50 AM, Geretsried, Weather by CustomWeather, © 2016

Note: Actual official high and low records may vary slightly from our data, if they occured in-between our weather recording intervals... More about our weather records

Advertising

Geretsried Weather History for the Previous 24 Hours

Scroll right to see more
 ConditionsComfort  
Time TempWeatherWind HumidityBarometerVisibility
10:50 AM
Thu, Sep 29
66 °FSunny.3 mph60%30.30 "Hg10 mi
10:20 AM64 °FSunny.1 mph64%30.30 "Hg10 mi
9:50 AM61 °FSunny.2 mph77%30.30 "Hg10 mi
9:20 AM59 °FSunny.2 mph77%30.30 "Hg10 mi
8:50 AM55 °FSunny.2 mph82%30.30 "Hg10 mi
8:20 AM52 °FSunny.2 mph94%30.30 "Hg10 mi
7:50 AM50 °FSunny.1 mph88%30.30 "Hg10 mi
7:20 AM50 °FSunny.3 mph88%30.30 "Hg10 mi
6:50 AM48 °FClear.2 mph87%30.30 "Hg10 mi
7:50 PM
Wed, Sep 28
57 °FClear.7 mph77%30.39 "Hg10 mi
7:20 PM59 °FClear.9 mph72%30.39 "Hg10 mi
6:50 PM61 °FSunny.8 mph72%30.39 "Hg10 mi
6:20 PM64 °FSunny.8 mph64%30.39 "Hg10 mi
5:50 PM66 °FSunny.9 mph60%30.36 "Hg10 mi
5:20 PM66 °FSunny.9 mph60%30.36 "Hg10 mi
4:50 PM68 °FSunny.9 mph53%30.36 "Hg10 mi
4:20 PM68 °FSunny.13 mph53%30.36 "Hg10 mi
3:50 PM68 °FSunny.9 mph56%30.39 "Hg10 mi
3:20 PM68 °FPassing clouds.12 mph56%30.39 "HgN/A
2:50 PM68 °FSunny.8 mph60%30.39 "Hg10 mi
2:20 PM68 °FSunny.8 mph60%30.39 "Hg10 mi
1:50 PM66 °FPassing clouds.9 mph64%30.39 "HgN/A
1:20 PM66 °FPassing clouds.8 mph68%30.42 "HgN/A
12:50 PM64 °FPassing clouds.9 mph73%30.42 "HgN/A
12:20 PM64 °FSunny.8 mph73%30.42 "Hg10 mi
Weather by CustomWeather, © 2016

See weather overviewHow to use our weather pages